This is the latest recevied weather packets stored in our database for station/object WZ9ZZZ-1. If no packets are shown the sender has not sent any weather packets the latest 10 day(s).
| Time | Temp. | Humidity | Pressure | Rain* | Wind** | Luminosity | Snow |
|---|---|---|---|---|---|---|---|
| 1778006445 | 26.67° C | 84% | 1013.4 hPa | 0 mm | - | 185 W/m² | - |
| 1778006142 | 26.67° C | 84% | 1013.2 hPa | 0 mm | - | 188 W/m² | - |
| 1778005840 | 26.67° C | 84% | 1013.4 hPa | 0 mm | - | 192 W/m² | - |
| 1778005536 | 26.67° C | 84% | 1013.4 hPa | 0 mm | - | 209 W/m² | - |
| 1778005232 | 26.11° C | 84% | 1013.5 hPa | 0 mm | - | 168 W/m² | - |
| 1778004929 | 26.11° C | 84% | 1013.5 hPa | 0 mm | - | 141 W/m² | - |
| 1778004627 | 26.11° C | 84% | 1013.3 hPa | 0 mm | - | 138 W/m² | - |
| 1778004322 | 26.11° C | 84% | 1013.5 hPa | 0 mm | - | 132 W/m² | - |
| 1778004021 | 26.11° C | 84% | 1013.5 hPa | 0 mm | - | 154 W/m² | - |
| 1778003721 | 26.11° C | 85% | 1013.5 hPa | 0 mm | - | 249 W/m² | - |
| 1778003418 | 26.11° C | 85% | 1013.4 hPa | 0 mm | - | 232 W/m² | - |
| 1778003115 | 25.56° C | 86% | 1013.5 hPa | 0 mm | - | 236 W/m² | - |
| 1778002811 | 25.56° C | 86% | 1013.5 hPa | 0 mm | - | 231 W/m² | - |
| 1778002508 | 25.56° C | 85% | 1013.4 hPa | 0 mm | - | 134 W/m² | - |
| 1778002205 | 25.56° C | 85% | 1013.5 hPa | 0 mm | - | 144 W/m² | - |
| 1778001903 | 25.56° C | 86% | 1013.8 hPa | 0 mm | - | 193 W/m² | - |
| 1778001597 | 25.56° C | 87% | 1013.7 hPa | 0 mm | - | 203 W/m² | - |
| 1778001293 | 25.56° C | 87% | 1013.9 hPa | 0 mm | - | 232 W/m² | - |
| 1778000990 | 25.56° C | 86% | 1013.7 hPa | 0 mm | - | 75 W/m² | - |
| 1778000687 | 25.56° C | 85% | 1013.9 hPa | 0 mm | - | 88 W/m² | - |
| 1778000382 | 25.56° C | 85% | 1013.8 hPa | 0 mm | - | 129 W/m² | - |
| 1778000078 | 25.56° C | 85% | 1013.9 hPa | 0 mm | - | 124 W/m² | - |
| 1777999774 | 25.56° C | 85% | 1013.6 hPa | 0 mm | - | 92 W/m² | - |
| 1777999471 | 26.11° C | 84% | 1013.6 hPa | 0 mm | - | 150 W/m² | - |
| 1777999169 | 26.11° C | 84% | 1013.7 hPa | 0 mm | - | 111 W/m² | - |
* Rain latest hour (hover to see other rain measurements)
** Current wind speed in m/s (hover to see current wind gust speed)